Location: Gazon
(48.1318°N, 1.2708°W)
Time: 23:19:00
(UTC+00:00)

OBJECT-B - Pass Details

Date: 18 September 2020
Orbit: 421 x 433 km, 97.0° (Epoch: 09 October)

Event Time Altitude Azimuth Distance (km) Brightness Sun altitude
Exits shadow 19:01:25 12° 83° (E) 1,395 2.8 -9.2°
Maximum altitude 19:02:24 13° 64° (ENE) 1,326 2.8 -9.4°
Drops below altitude 10° 19:04:03 10° 33° (NNE) 1,521 3.4 -9.7°
Sets 19:06:51 0° 6° (N) 2,396 4.7 -10.1°
